Location: Newark
(52.4787°S, 179.0532°W)
Time: 05:45:56
(UTC+00:00)

Transit 2A Rocket - Pass Details

Date: 25 November 2019
Orbit: 594 x 909 km, 66.7° (Epoch: 12 December)

Event Time Altitude Azimuth Distance (km) Brightness Sun altitude
Rises 02:46:33 0° 223° (SW) 3,567 8.6 42.6°
Reaches altitude 10° 02:49:19 10° 215° (SW) 2,629 8.0 42.2°
Maximum altitude 02:55:02 38° 147° (SSE) 1,374 6.3 41.4°
Drops below altitude 10° 03:00:34 10° 80° (E) 2,550 7.4 40.6°
Sets 03:03:12 0° 71° (ENE) 3,448 8.0 40.2°
